Weather reports worldwide

Advertisment
Northolt, United Kingdom (3672): temperature & dewpoint: 13.04.2019 00:00:00 - 19.04.2019 00:00:00 (BST)Northolt, United Kingdom (3672): temperature -20cm & temperature -100cm: 13.04.2019 00:00:00 - 19.04.2019 00:00:00 (BST)Northolt, United Kingdom (3672): wind speed & gusts: 13.04.2019 00:00:00 - 19.04.2019 00:00:00 (BST)Northolt, United Kingdom (3672): wind direction: 13.04.2019 00:00:00 - 19.04.2019 00:00:00 (BST)Northolt, United Kingdom (3672): reduced air pressure: 13.04.2019 00:00:00 - 19.04.2019 00:00:00 (BST)Northolt, United Kingdom (3672): visibility: 13.04.2019 00:00:00 - 19.04.2019 00:00:00 (BST)Northolt, United Kingdom (3672): precipitation: 13.04.2019 00:00:00 - 19.04.2019 00:00:00 (BST)
Date & Time tt [°C] td [°C] tt -20cm [°C] tt -100cm [°C] ff [km/h] ff [kn] fx [km/h] fx [kn] dd ppp [hPa] vv [km] rr [mm]
19.04.2019 00:00:00 12,3 5,2 - - 9 5 - - NE 1026,0 10 -
18.04.2019 23:00:00 14,2 5,3 - - 13 7 - - ENE 1025,8 16 0,0
18.04.2019 22:00:00 15,1 5,0 - - 15 8 - - ENE 1025,4 10 0,0
18.04.2019 21:00:00 16,0 5,0 - - 11 6 - - E 1025,0 10 0,0
18.04.2019 20:00:00 17,2 4,6 - - 13 7 - - E 1024,3 10 0,0
18.04.2019 19:00:00 18,5 4,1 - - 21 11 - - E 1023,6 10 0,0
18.04.2019 18:00:00 19,6 3,4 - - 21 11 - - E 1023,1 10 0,0
18.04.2019 17:00:00 20,1 4,8 - - 22 12 - - E 1022,6 10 0,0
18.04.2019 16:00:00 20,7 5,1 - - 28 15 - - E 1022,3 10 0,0
18.04.2019 15:00:00 20,3 6,4 - - 24 13 - - E 1022,4 10 0,0
18.04.2019 14:00:00 20,4 8,9 - - 22 12 - - E 1022,6 10 0,0
18.04.2019 13:00:00 19,3 8,4 - - 24 13 - - ESE 1022,7 10 0,0
18.04.2019 12:00:00 18,0 9,4 - - 16 9 - - ESE 1023,0 10 0,0
18.04.2019 11:00:00 16,4 9,4 - - 16 9 - - ENE 1023,2 8 0,0
18.04.2019 10:00:00 14,4 9,1 10,7 9,7 16 9 - - ENE 1023,1 6 0,0
18.04.2019 09:00:00 10,9 8,6 - - 13 7 - - E 1023,1 4,5 0,0
18.04.2019 08:00:00 8,6 7,6 - - 11 6 - - ENE 1023,1 2,5 0,0
18.04.2019 07:00:00 7,7 6,8 - - 9 5 - - NE 1022,9 1,8 0,0
18.04.2019 06:00:00 7,7 6,9 - - 9 5 - - NE 1022,7 1,7 0,0
18.04.2019 05:00:00 8,0 7,1 - - 5 3 - - ENE 1022,5 1,7 0,0
18.04.2019 04:00:00 8,5 7,6 - - 9 5 - - E 1022,5 1,7 0,0
18.04.2019 03:00:00 8,8 7,8 - - 11 6 - - E 1022,4 1,7 0,0
18.04.2019 02:00:00 9,0 7,8 - - 11 6 - - E 1022,3 1,8 0,0
18.04.2019 01:00:00 9,5 8,0 - - 13 7 - - E 1022,5 2,3 0,0
18.04.2019 00:00:00 10,1 8,0 - - 13 7 - - E 1022,2 2,8 0,0
17.04.2019 23:00:00 10,8 8,1 - - 13 7 - - E 1021,8 4,6 0,0
17.04.2019 22:00:00 12,7 9,0 - - 11 6 - - E 1021,0 4,7 0,0
17.04.2019 21:00:00 13,5 7,4 - - 13 7 - - SE 1020,6 8 0,0
17.04.2019 20:00:00 15,2 8,1 - - 21 11 - - SE 1019,7 7 0,0
17.04.2019 19:00:00 16,9 9,0 - - 21 11 - - ESE 1019,0 7 0,0
17.04.2019 18:00:00 18,0 7,2 - - 15 8 - - E 1018,6 7 0,0
17.04.2019 17:00:00 18,0 6,6 - - 18 10 - - E 1018,4 8 0,0
17.04.2019 16:00:00 19,1 6,4 - - 11 6 - - E 1018,7 9 0,0
17.04.2019 15:00:00 18,2 7,0 - - 9 5 - - E 1019,0 9 0,0
17.04.2019 14:00:00 18,2 7,1 - - 4 2 - - SSE 1019,3 9 0,0
17.04.2019 13:00:00 15,6 7,0 - - 4 2 - - SSE 1019,6 9 0,0
17.04.2019 12:00:00 13,8 6,8 - - 4 2 - - N 1019,9 8 0,0
17.04.2019 11:00:00 11,3 6,7 - - 4 2 - - ENE 1020,2 7 0,0
17.04.2019 10:00:00 9,2 6,5 10,0 9,7 4 2 - - NNE 1020,2 6 0,0
17.04.2019 09:00:00 7,4 6,4 - - 8 4 - - NNE 1019,9 4,0 0,0
17.04.2019 08:00:00 6,3 5,3 - - 8 4 - - NNE 1019,6 4,0 0,0
17.04.2019 07:00:00 5,6 5,1 - - 8 4 - - NNE 1019,3 4,0 0,0
17.04.2019 06:00:00 5,2 4,4 - - 4 2 - - N 1018,9 2,8 0,0
17.04.2019 05:00:00 6,5 4,9 - - 4 2 - - WNW 1018,7 4,6 0,0
17.04.2019 04:00:00 7,9 5,9 - - 11 6 - - NE 1018,5 5 0,0
17.04.2019 03:00:00 8,7 7,9 - - 2 1 - - NNE 1018,4 3,6 0,0
17.04.2019 02:00:00 8,9 8,4 - - 4 2 - - NW 1018,1 2,1 0,0
17.04.2019 01:00:00 9,3 8,7 - - 4 2 - - E 1018,1 2,7 0,0
17.04.2019 00:00:00 9,5 8,7 - - 4 2 - - NW 1018,2 2,6 0,0
16.04.2019 23:00:00 9,8 8,7 - - 5 3 - - NNW 1018,0 3,2 0,0
16.04.2019 22:00:00 10,1 8,8 - - 8 4 - - NW 1017,8 4,6 0,0
16.04.2019 21:00:00 10,3 8,7 - - 8 4 - - WSW 1017,5 4,5 0,0
16.04.2019 20:00:00 11,6 9,4 - - 9 5 - - NE 1016,8 6 0,0
16.04.2019 19:00:00 11,8 9,8 - - 8 4 - - NNE 1016,3 7 0,0
16.04.2019 18:00:00 11,3 9,3 - - 4 2 - - WNW 1015,9 8 0,0
16.04.2019 17:00:00 11,4 9,4 - - 16 9 - - WNW 1015,4 6 2,0
16.04.2019 16:00:00 12,2 10,3 - - 21 11 - - W 1015,1 5 4,0
16.04.2019 15:00:00 15,7 7,0 - - 2 1 - - NNE 1014,8 10 0,0
16.04.2019 14:00:00 15,7 7,0 - - 8 4 - - NE 1014,7 8 0,0
16.04.2019 13:00:00 14,6 7,5 - - 8 4 - - N 1014,6 8 0,0
16.04.2019 12:00:00 13,4 6,8 - - 8 4 - - NNW 1014,8 7 0,0
16.04.2019 11:00:00 12,7 7,3 - - 5 3 - - NNW 1014,8 6 0,0
16.04.2019 10:00:00 11,6 6,8 9,7 9,7 4 2 - - W 1014,7 6 0,0
16.04.2019 09:00:00 10,6 7,1 - - 8 4 - - ENE 1014,2 5 0,0
16.04.2019 08:00:00 7,9 6,0 - - 5 3 - - NE 1014,0 4,5 0,0
16.04.2019 07:00:00 5,5 4,4 - - 4 2 - - N 1014,0 4,0 0,0
16.04.2019 06:00:00 4,5 3,4 - - 4 2 - - NNW 1013,5 3,4 0,0
16.04.2019 05:00:00 4,5 2,9 - - 5 3 - - NNE 1013,6 4,3 0,0
16.04.2019 04:00:00 5,0 3,1 - - 4 2 - - N 1013,8 4,8 0,0
16.04.2019 03:00:00 7,0 4,0 - - 8 4 - - NE 1013,9 6 0,0
16.04.2019 02:00:00 7,0 4,0 - - 8 4 - - NE 1014,3 6 0,0
16.04.2019 01:00:00 7,4 4,0 - - 5 3 - - NE 1015,0 6 0,0
16.04.2019 00:00:00 8,3 4,2 - - 11 6 - - E 1015,5 7 0,0
15.04.2019 23:00:00 8,7 3,9 - - 13 7 - - E 1015,5 8 0,0
15.04.2019 22:00:00 9,0 3,9 - - 15 8 - - E 1015,8 9 0,0
15.04.2019 21:00:00 9,5 3,2 - - 15 8 - - E 1016,0 10 0,0
15.04.2019 20:00:00 9,7 3,0 - - 18 10 - - E 1016,0 10 0,0
15.04.2019 19:00:00 10,4 2,8 - - 22 12 - - ESE 1015,8 10 0,0
15.04.2019 18:00:00 11,5 0,6 - - 22 12 - - E 1016,0 10 0,0
15.04.2019 17:00:00 12,3 0,2 - - 28 15 - - E 1016,4 10 0,0
15.04.2019 16:00:00 13,4 2,3 - - 29 16 - - E 1016,8 10 0,0
15.04.2019 15:00:00 13,8 1,8 - - 22 12 - - ESE 1017,5 10 0,0
15.04.2019 14:00:00 13,7 1,7 - - 26 14 - - ESE 1018,4 10 0,0
15.04.2019 13:00:00 13,9 -0,3 - - 28 15 48 26 SE 1019,2 10 0,0
15.04.2019 12:00:00 13,7 0,5 - - 29 16 - - SE 1020,3 18 0,0
15.04.2019 11:00:00 12,4 0,5 - - 31 17 46 25 SE 1021,3 10 0,0
15.04.2019 10:00:00 11,0 0,5 9,0 9,7 29 16 - - SE 1021,9 10 0,0
15.04.2019 09:00:00 8,8 0,9 - - 26 14 - - ESE 1022,4 10 0,0
15.04.2019 08:00:00 7,1 1,1 - - 18 10 - - ESE 1022,9 10 0,0
15.04.2019 07:00:00 5,4 1,5 - - 11 6 - - ESE 1023,2 9 0,0
15.04.2019 06:00:00 4,8 2,2 - - 9 5 - - E 1023,6 7 0,0
15.04.2019 05:00:00 4,3 2,2 - - 11 6 - - E 1023,5 7 0,0
15.04.2019 04:00:00 4,2 1,9 - - 8 4 - - E 1024,1 7 0,0
15.04.2019 03:00:00 4,5 1,6 - - 11 6 - - E 1024,8 7 0,0
15.04.2019 02:00:00 5,0 1,6 - - 8 4 - - E 1025,2 6 0,0
15.04.2019 01:00:00 4,7 1,3 - - 13 7 - - E 1025,6 6 0,0
15.04.2019 00:00:00 4,9 1,4 - - 11 6 - - E 1025,7 6 0,0
14.04.2019 23:00:00 5,5 0,9 - - 13 7 - - ESE 1025,9 8 0,0
14.04.2019 22:00:00 5,6 1,0 - - 18 10 - - ESE 1025,8 8 0,0
14.04.2019 21:00:00 6,0 0,1 - - 18 10 - - ESE 1025,7 11 0,0
14.04.2019 20:00:00 6,9 -1,0 - - 26 14 - - ESE 1025,1 10 0,0
14.04.2019 19:00:00 7,9 -0,6 - - 22 12 - - E 1024,8 10 0,0
14.04.2019 18:00:00 9,6 -3,1 - - 24 13 - - ESE 1024,5 10 0,0
14.04.2019 17:00:00 9,5 -2,4 - - 24 13 - - E 1024,4 10 0,0
14.04.2019 16:00:00 9,9 -5,6 - - 13 7 - - ESE 1024,9 10 0,0
14.04.2019 15:00:00 8,7 -1,8 - - 21 11 - - E 1025,3 10 0,0
14.04.2019 14:00:00 8,7 -2,2 - - 24 13 - - E 1024,3 10 0,0
14.04.2019 13:00:00 8,1 -1,3 - - 22 12 - - ENE 1024,9 10 0,0
14.04.2019 12:00:00 8,4 -0,6 - - 18 10 - - ESE 1025,5 10 0,0
14.04.2019 11:00:00 7,2 -0,7 - - 21 11 - - ESE 1025,8 10 0,0
14.04.2019 10:00:00 6,5 1,0 9,2 9,7 13 7 - - E 1025,9 10 0,0
14.04.2019 09:00:00 4,0 0,2 - - 13 7 - - E 1025,9 10 0,0
14.04.2019 08:00:00 1,6 -0,4 - - 8 4 - - NE 1025,7 10 0,0
14.04.2019 07:00:00 -1,5 -2,5 - - 4 2 - - NNW 1025,7 10 0,0
14.04.2019 06:00:00 -2,7 -4,0 - - 9 5 - - NNE 1025,7 18 0,0
14.04.2019 05:00:00 -1,8 -3,1 - - 5 3 - - N 1025,8 10 0,0
14.04.2019 04:00:00 -1,7 -3,1 - - 5 3 - - W 1026,0 16 0,0
14.04.2019 03:00:00 -0,7 -3,2 - - 5 3 - - NNE 1026,0 10 0,0
14.04.2019 02:00:00 1,3 -2,0 - - 9 5 - - NE 1026,3 10 0,0
14.04.2019 01:00:00 2,1 -2,1 - - 8 4 - - ENE 1026,7 10 0,0
14.04.2019 00:00:00 3,1 -1,7 - - 13 7 - - E 1026,7 25 0,0
13.04.2019 23:00:00 4,0 -1,2 - - 15 8 - - E 1026,5 10 0,0
13.04.2019 22:00:00 4,7 -0,9 - - 16 9 - - E 1026,6 10 0,0
13.04.2019 21:00:00 4,6 -1,4 - - 8 4 - - E 1026,6 30 0,0
13.04.2019 20:00:00 6,1 -2,0 - - 15 8 - - E 1026,4 10 0,0
13.04.2019 19:00:00 7,2 -0,9 - - 21 11 - - E 1026,5 10 0,0
13.04.2019 18:00:00 8,0 -3,1 - - 15 8 - - ENE 1026,3 10 0,0
13.04.2019 17:00:00 9,0 -1,9 - - 13 7 - - E 1026,3 10 0,0
13.04.2019 16:00:00 8,1 -0,6 - - 21 11 - - E 1026,8 10 0,0
13.04.2019 15:00:00 5,1 2,6 - - 22 12 - - ESE 1027,5 10 0,8
13.04.2019 14:00:00 8,4 4,2 - - 4 2 - - SSW 1027,6 10 0,2
13.04.2019 13:00:00 5,7 1,4 - - 5 3 - - NNW 1027,8 10 0,2
13.04.2019 12:00:00 7,2 -0,4 - - 13 7 - - ESE 1027,6 10 0,0
13.04.2019 11:00:00 6,7 1,2 - - 13 7 - - E 1028,2 10 0,0
13.04.2019 10:00:00 6,2 0,4 9,5 9,7 13 7 - - E 1028,3 10 0,0
13.04.2019 09:00:00 4,2 0,1 - - 8 4 - - ENE 1028,2 10 0,0
13.04.2019 08:00:00 2,5 -0,7 - - 9 5 - - NE 1028,1 10 0,0
13.04.2019 07:00:00 1,0 -1,5 - - 11 6 - - NNE 1027,9 10 0,0
13.04.2019 06:00:00 0,7 -1,8 - - 11 6 - - NNE 1027,7 10 0,0
13.04.2019 05:00:00 1,0 -1,7 - - 11 6 - - NE 1027,8 10 0,0
13.04.2019 04:00:00 1,9 -1,3 - - 11 6 - - NE 1027,7 10 0,0
13.04.2019 03:00:00 2,8 -0,4 - - 11 6 - - NE 1027,9 10 0,0
13.04.2019 02:00:00 3,6 0,1 - - 9 5 - - NE 1027,7 18 0,0
13.04.2019 01:00:00 5,0 0,3 - - 15 8 - - E 1027,5 10 0,0
13.04.2019 00:00:00 5,9 -0,4 - - 13 7 - - ENE 1027,4 10 0,0

tt = temperature
td = dewpoint
tt -20cm = temperature -20cm
tt -100cm = temperature -100cm
ff = wind speed
fx = gusts
dd = wind direction
ppp = reduced air pressure
vv = visibility
rr = precipitation

Next stations